{"data":{"norad_id":67145,"epoch":"2026-09-20T23:26:39.479712Z","epoch_age_seconds":64898,"freshness":"FRESH","line1":"1 67145U 25301N   26263.97684583  .00001584  00000+0  23660-3 0  9990","line2":"2 67145  51.9017 262.0818 0000591  60.9560 299.1461 14.79945929 43048","mean_motion":14.79945929,"eccentricity":5.91e-5,"inclination_deg":51.9017,"raan_deg":262.0818,"arg_perigee_deg":60.956,"mean_anomaly_deg":299.1461,"bstar":0.0002366,"rev_number":4304,"period_min":97.300852131335,"perigee_km":629.08066478262,"apogee_km":629.90896686325,"semimajor_km":7007.6318158229,"source":"CELESTRAK","updated_at":"2026-09-21T09:00:16.457397Z"}}